User: anonymous
Location: The D'Auria's Ocala Star Observatory
(29.0276°N, 82.1742°W)
Time: 04:43:02
(UTC-04:00)
Language:

Okean 3 Rocket - Orbit

View from above orbital plane
View from above orbital plane
View from above satellite
View from above satellite

Ground track
Ground track

The orbit data is extracted from the following two-line orbital elements,

1 21398U 91039B   14293.44363049  .00000716  00000-0  92855-4 0  8825
2 21398 082.5255 049.6309 0023055 122.9531 303.9620 14.79246795260376
Epoch (UTC): 20 October 2014 10:38:49
Eccentricity: 0.0023055
inclination: 82.5255°
perigee height: 615 km
apogee height: 648 km
right ascension of ascending node: 49.6309°
argument of perigee: 122.9531°
revolutions per day: 14.79246795
mean anomaly at epoch: 303.9620°
orbit number at epoch: 26037

The dashed part of the orbit path shows where the satellite is in the earth's shadow,  

DLR